{"data":{"norad_id":41382,"epoch":"2026-09-20T03:27:13.671072Z","epoch_age_seconds":56404,"freshness":"FRESH","line1":"1 41382U 16014A   26263.14390823 -.00000280  00000+0  00000+0 0  9998","line2":"2 41382   0.0633 325.8736 0002236 207.2431 172.5466  1.00270721 38471","mean_motion":1.00270721,"eccentricity":0.0002236,"inclination_deg":0.0633,"raan_deg":325.8736,"arg_perigee_deg":207.2431,"mean_anomaly_deg":172.5466,"bstar":0,"rev_number":3847,"period_min":1436.1121428458,"perigee_km":35777.465140891,"apogee_km":35796.321342415,"semimajor_km":42165.030241653,"source":"CELESTRAK","updated_at":"2026-09-20T09:00:35.223639Z"}}